[[{"header":{"parameterUnit":"m.s-1","parameterCategory":1,"la1":30.2991,"la2":30.254,"lo1":-89.0895,"lo2":-89.0444,"dy":0.0017,"dx":0.0017,"nx":28,"ny":28,"refTime":"2025-02-09T09:00:00:Z","depth":0,"parameterNumber":2,"parameterNumberName":"U-component_of_WINDS"},"data":[0,0,0,0,0,0,0,0,0,0,0,0,0,0,0,0,0,0,0,0,0,0,0,0,0,0,0,0,0,0,0,0,0,0,0,0,0,0,0,0,0,0,0,0,0,0,0,0,0,0,0,0,0,0,0,0,0,0,0.525,0.525,0,0.5294,0.5295,0.5295,0.529,0.5289,0.5289,0.5288,0.5333,0.5335,0.5337,0,0,0,0,0,0,0,0,0,0,0,0,0,0.516,0.5161,0.525,0.525,0.5251,0.5294,0.5295,0.5295,0.529,0.5289,0.5288,0.5288,0.5333,0.5335,0.5337,0,0,0,0,0,0,0,0,0,0,0,0,0,0.5201,0.5162,0.525,0.5253,0.5254,0.5294,0.5295,0.5295,0.529,0.5289,0.5288,0.5287,0.5332,0.5335,0.5338,0.5376,0,0,0.5346,0.5347,0,0,0,0,0,0,0,0,0.5199,0.5204,0.5252,0.5253,0.5254,0.5285,0.528,0.5322,0.5291,0.5277,0.5288,0.5287,0.5318,0.5322,0.5333,0.5378,0.538,0.5346,0.5348,0.5349,0.535,0,0,0,0,0,0,0,0.5196,0.5202,0.5267,0.5253,0.5254,0.5253,0.5257,0.5288,0.5303,0.5278,0.5278,0.5283,0.5319,0.533,0.5334,0.5381,0.5346,0.5349,0.535,0.5352,0.546,0.5461,0,0,0,0,0,0,0.5192,0.52,0.5266,0.5269,0.5223,0.5255,0.526,0.5277,0.5303,0.5305,0.5284,0.5282,0.5326,0.5331,0.5335,0.5382,0.5349,0.5352,0.5353,0.5458,0.546,0.5461,0,0,0,0,0,0,0.519,0.5198,0.5264,0.5234,0.5243,0.5258,0.5276,0.5278,0.5289,0.5307,0.531,0.5293,0.5325,0.5331,0.5366,0.5384,0.5353,0.5356,0.5457,0.5459,0.546,0.5476,0,0,0,0,0,0,0.5188,0.5197,0.5212,0.5235,0.5244,0.5294,0.5277,0.528,0.5294,0.5293,0.5316,0.5319,0.5325,0.5362,0.5369,0.5387,0.5358,0.5455,0.5458,0.546,0.5474,0.5478,0.5481,0,0,0,0,0,0.5184,0.5215,0.5213,0.5221,0.5263,0.5295,0.5301,0.5307,0.5296,0.5311,0.5322,0.5318,0.538,0.5365,0.5373,0.5392,0.5454,0.5457,0.546,0.5472,0.5477,0.5481,0,0,0,0,0,0,0.5194,0.5218,0.5216,0.5255,0.5273,0.5294,0.5313,0.5312,0.5333,0.5331,0.5338,0.5343,0.5378,0.5388,0.5371,0.5431,0.5416,0.542,0.5423,0.5428,0.5431,0.5428,0.536,0,0,0,0,0,0.5201,0.5225,0.5244,0.5277,0.5286,0.5298,0.5312,0.5315,0.5334,0.5342,0.5356,0.5374,0.5398,0.5413,0.5436,0.5475,0.548,0.5492,0.5496,0.5499,0.5503,0.5524,0.553,0.547,0.547,0.547,0,0,0.5215,0.5231,0.5246,0.5279,0.5294,0.5318,0.5305,0.5331,0.5349,0.5346,0.5379,0.539,0.5411,0.5448,0.5465,0.5458,0.552,0.5502,0.5505,0.5507,0.5527,0.5533,0.5538,0.5472,0.5471,0.5471,0,0,0.5254,0.5268,0.5297,0.5311,0.5333,0.5341,0.5348,0.5369,0.5376,0.5409,0.5407,0.5429,0.5469,0.5484,0.5497,0.554,0.5538,0.5548,0.5568,0.5588,0.5593,0.5597,0.5613,0.5618,0.5551,0.5551,0.5551,0,0.5269,0.5306,0.5311,0.5338,0.5353,0.5351,0.5379,0.5393,0.5421,0.5431,0.5423,0.5473,0.5487,0.5528,0.5538,0.5549,0.5556,0.5545,0.5592,0.5596,0.56,0.5615,0.5621,0.5552,0.5552,0.5552,0.5552,0,0.5323,0.5349,0.5369,0.5396,0.5413,0.544,0.545,0.5466,0.5467,0.5476,0.551,0.5526,0.5552,0.5562,0.5564,0.5602,0.5597,0.559,0.5576,0.5607,0.5621,0.5626,0.5554,0.5554,0.5553,0.5553,0,0,0.5369,0.5399,0.5406,0.5419,0.5442,0.5462,0.5489,0.5515,0.5528,0.5547,0.557,0.5604,0.5598,0.5613,0.5616,0.5634,0.5667,0.5625,0.5625,0.5632,0.571,0.5715,0.5722,0.5665,0.5666,0.5667,0.5708,0,0.541,0.5459,0.5464,0.5507,0.5531,0.5529,0.5552,0.5569,0.5578,0.5599,0.5608,0.5632,0.5622,0.5631,0.5648,0.5659,0.5683,0.5656,0.5686,0.5687,0.5681,0.5729,0.5735,0.5774,0.5714,0.5715,0.5716,0,0.5464,0.5485,0.5531,0.5551,0.5561,0.5582,0.5605,0.5626,0.5644,0.5649,0.5665,0.5666,0.5694,0.5678,0.5716,0.5697,0.571,0.5717,0.5719,0.5722,0.5704,0.5734,0.5786,0.5792,0.5724,0.5724,0.5723,0,0.5494,0.5533,0.5565,0.5576,0.56,0.5615,0.5626,0.5643,0.5658,0.5678,0.5688,0.5711,0.5724,0.5742,0.5748,0.5736,0.5786,0.577,0.5791,0.5791,0.5802,0.5801,0.5857,0.581,0.581,0.5809,0.5809,0,0.5539,0.5567,0.5579,0.5599,0.563,0.5636,0.5666,0.5676,0.5692,0.5713,0.5713,0.5733,0.574,0.5762,0.5767,0.5798,0.5803,0.5808,0.5809,0.5808,0.5808,0.5817,0.5814,0.5811,0.5811,0.581,0.581,0,0.5577,0.5586,0.5621,0.5641,0.5647,0.5669,0.5686,0.5705,0.5713,0.574,0.5746,0.5759,0.5784,0.5792,0.5823,0.5826,0.5862,0.5861,0.5856,0.5856,0.5876,0.5874,0.5939,0.5948,0.5895,0.5896,0.5896,0,0.5605,0.5627,0.5649,0.5663,0.5675,0.5698,0.5713,0.5719,0.5735,0.5757,0.5774,0.5798,0.5818,0.5858,0.587,0.5893,0.5892,0.5914,0.5896,0.5894,0.5893,0.5891,0.5894,0.5917,0.5918,0.5918,0.5919,0,0.5654,0.5658,0.5679,0.5703,0.5721,0.5739,0.5757,0.5769,0.5778,0.5795,0.5821,0.5836,0.5867,0.5891,0.5915,0.5925,0.5924,0.5924,0.593,0.5929,0.5926,0.5928,0.5865,0.5923,0.5922,0.5922,0.5922,0.5921,0.5688,0.5707,0.5726,0.575,0.5764,0.5781,0.5799,0.581,0.5831,0.5857,0.5859,0.5887,0.5904,0.5935,0.5947,0.5968,0.5962,0.5971,0.5973,0.5975,0.5977,0.5922,0.5973,0.5973,0.5973,0.5972,0.5972,0,0.5737,0.5749,0.5771,0.5796,0.5815,0.5812,0.5831,0.5847,0.5871,0.5888,0.5908,0.5937,0.5961,0.5974,0.5997,0.6012,0.6012,0.6018,0.6017,0.6019,0.5981,0.5974,0.6018,0.6018,0.6018,0.6018,0.6018,0.6018,0.5765,0.5797,0.5802,0.5841,0.5852,0.5879,0.5891,0.5906,0.5919,0.5952,0.5972,0.598,0.5995,0.602,0.6041,0.6045,0.6053,0.606,0.6063,0.6027,0.6022,0.6018,0.6011,0.6062,0.6062,0.6099,0.61,0.61]},{"header":{"parameterUnit":"m.s-1","parameterCategory":1,"la1":30.2991,"la2":30.254,"lo1":-89.0895,"lo2":-89.0444,"dy":0.0017,"dx":0.0017,"nx":28,"ny":28,"refTime":"2025-02-09T09:00:00:Z","depth":0,"parameterNumber":3,"parameterNumberName":"V-component_of_WINDS"},"data":[0,0,0,0,0,0,0,0,0,0,0,0,0,0,0,0,0,0,0,0,0,0,0,0,0,0,0,0,0,0,0,0,0,0,0,0,0,0,0,0,0,0,0,0,0,0,0,0,0,0,0,0,0,0,0,0,0,0,3.2714,3.2715,0,3.2774,3.2775,3.2775,3.2743,3.2741,3.274,3.2738,3.2797,3.28,3.2803,0,0,0,0,0,0,0,0,0,0,0,0,0,3.2568,3.2571,3.2714,3.2715,3.2715,3.2774,3.2775,3.2776,3.2743,3.2741,3.2739,3.2737,3.2796,3.28,3.2803,0,0,0,0,0,0,0,0,0,0,0,0,0,3.263,3.2571,3.2714,3.2706,3.2706,3.2774,3.2775,3.2776,3.2744,3.2741,3.2739,3.2736,3.2795,3.2799,3.2804,3.2881,0,0,3.2818,3.282,0,0,0,0,0,0,0,0,3.2626,3.2635,3.2707,3.2707,3.2707,3.2749,3.2745,3.2811,3.2744,3.2729,3.2738,3.2735,3.2783,3.2788,3.2805,3.2884,3.2887,3.2818,3.2821,3.2823,3.2825,0,0,0,0,0,0,0,3.2622,3.2632,3.2738,3.2708,3.2708,3.2699,3.2705,3.2757,3.2769,3.273,3.2728,3.2736,3.2782,3.28,3.2806,3.2887,3.2818,3.2822,3.2825,3.2827,3.3034,3.3037,0,0,0,0,0,0,3.2619,3.2629,3.2736,3.2739,3.266,3.2704,3.271,3.2738,3.2768,3.2771,3.2738,3.2734,3.2794,3.28,3.2808,3.2902,3.2823,3.2828,3.283,3.3031,3.3035,3.3038,0,0,0,0,0,0,3.2616,3.2628,3.2733,3.2684,3.2696,3.2709,3.274,3.274,3.2758,3.2774,3.2776,3.2755,3.2792,3.2801,3.2864,3.2903,3.283,3.2834,3.3028,3.3032,3.3036,3.3089,0,0,0,0,0,0,3.2612,3.2628,3.2658,3.2685,3.2699,3.2789,3.2742,3.2743,3.2767,3.2762,3.279,3.2792,3.2791,3.2857,3.2868,3.2908,3.2837,3.3025,3.303,3.3035,3.3084,3.3095,3.3104,0,0,0,0,0,3.2606,3.267,3.266,3.2673,3.2738,3.2792,3.28,3.2798,3.277,3.28,3.281,3.2791,3.2897,3.2864,3.2876,3.2918,3.3022,3.3028,3.3034,3.308,3.3093,3.3103,0,0,0,0,0,0,3.2646,3.2673,3.2662,3.2736,3.2762,3.2786,3.2824,3.2811,3.2845,3.2839,3.2834,3.284,3.2906,3.2918,3.288,3.2995,3.2955,3.2964,3.2985,3.2998,3.3007,3.3004,3.2841,0,0,0,0,0,3.2664,3.2706,3.2727,3.279,3.2804,3.2812,3.2835,3.2831,3.2857,3.2868,3.2883,3.2908,3.2947,3.2972,3.3009,3.3085,3.3091,3.312,3.313,3.3138,3.3146,3.3188,3.3201,3.3058,3.3058,3.3057,0,0,3.27,3.272,3.2747,3.2799,3.2818,3.2862,3.2821,3.2869,3.2901,3.2875,3.2936,3.2947,3.2975,3.3045,3.3076,3.3057,3.3187,3.3145,3.3152,3.3156,3.3196,3.3209,3.3221,3.3062,3.3061,3.306,0,0,3.2789,3.2808,3.2864,3.2884,3.2915,3.292,3.2933,3.2959,3.2966,3.3027,3.3008,3.3046,3.3112,3.3133,3.3153,3.325,3.3234,3.3261,3.3313,3.3354,3.3366,3.3376,3.3412,3.3425,3.3269,3.3269,3.3269,0,3.283,3.2897,3.2893,3.2943,3.2967,3.2945,3.3001,3.3021,3.3061,3.3078,3.3055,3.3139,3.3156,3.3231,3.3255,3.3271,3.3286,3.3259,3.3365,3.3375,3.3384,3.3418,3.3431,3.3273,3.3272,3.3272,3.3272,0,3.2946,3.2992,3.3033,3.3075,3.3102,3.3154,3.3158,3.3186,3.318,3.3187,3.3249,3.3269,3.3309,3.3326,3.332,3.3401,3.3388,3.3365,3.3325,3.3401,3.3433,3.3446,3.3277,3.3276,3.3275,3.3274,0,0,3.3063,3.3102,3.3118,3.3136,3.3168,3.3203,3.3254,3.3295,3.332,3.3348,3.3391,3.3448,3.3427,3.3449,3.3444,3.348,3.3557,3.3453,3.3454,3.3473,3.3649,3.3667,3.3683,3.3546,3.3549,3.3551,3.3647,0,3.3156,3.3247,3.3246,3.333,3.3373,3.3353,3.3397,3.3421,3.3429,3.3466,3.3473,3.3515,3.3483,3.3497,3.3531,3.3541,3.3593,3.3533,3.3587,3.3589,3.3582,3.3699,3.3719,3.3809,3.3659,3.3662,3.3663,0,3.3276,3.331,3.34,3.3426,3.3444,3.3484,3.3522,3.3557,3.3583,3.3586,3.3611,3.3601,3.3652,3.3609,3.368,3.364,3.3661,3.3669,3.3673,3.3679,3.3632,3.371,3.3838,3.3852,3.3682,3.3681,3.368,0,3.3355,3.3422,3.3485,3.3501,3.3533,3.3562,3.3576,3.36,3.3625,3.3657,3.3673,3.371,3.3731,3.376,3.376,3.3729,3.3832,3.3789,3.3836,3.3836,3.386,3.3859,3.3995,3.3871,3.3871,3.387,3.387,0,3.346,3.3515,3.3521,3.3559,3.3621,3.3618,3.3678,3.369,3.3711,3.3751,3.3735,3.3773,3.3769,3.3807,3.3807,3.3866,3.3875,3.3879,3.3879,3.3882,3.3882,3.3897,3.3892,3.3874,3.3873,3.3873,3.3872,0,3.3559,3.3565,3.3632,3.3656,3.3664,3.3708,3.3729,3.3765,3.3771,3.3822,3.3834,3.3843,3.3886,3.3889,3.3938,3.3938,3.4011,3.4003,3.4003,3.4002,3.405,3.4046,3.4202,3.4223,3.4083,3.4085,3.4086,0,3.3626,3.3669,3.3699,3.3725,3.3742,3.3783,3.3809,3.3807,3.3834,3.3867,3.39,3.3942,3.3976,3.4046,3.4057,3.4095,3.4089,3.4141,3.4094,3.4097,3.4092,3.409,3.4095,3.415,3.4152,3.4153,3.4154,0,3.3746,3.3747,3.3785,3.3824,3.3856,3.3886,3.3914,3.3936,3.3937,3.3969,3.4014,3.404,3.4092,3.4134,3.4171,3.4185,3.417,3.4168,3.4182,3.4186,3.4185,3.4188,3.403,3.4165,3.4164,3.4163,3.4163,3.4162,3.3832,3.387,3.3897,3.394,3.3961,3.3988,3.4024,3.4035,3.4073,3.4116,3.4111,3.4162,3.4187,3.4235,3.4252,3.4291,3.4273,3.4292,3.4297,3.4302,3.4308,3.4177,3.4297,3.4297,3.4297,3.4296,3.4296,0,3.3953,3.3969,3.4009,3.405,3.4084,3.4067,3.4098,3.4127,3.4172,3.4197,3.4231,3.4283,3.4324,3.4338,3.4377,3.4406,3.44,3.4417,3.4416,3.4419,3.4321,3.4307,3.4421,3.4421,3.4421,3.4421,3.4421,3.4421,3.4019,3.4083,3.4087,3.416,3.4175,3.4226,3.4245,3.4269,3.429,3.4349,3.4383,3.4392,3.4413,3.4454,3.4491,3.4494,3.451,3.453,3.453,3.4438,3.4426,3.4414,3.4401,3.4533,3.4533,3.4625,3.4626,3.4627]}]]